Tracking 25612 objects as of 20-May-2022
HD Live streaming from Space Station
objects crossing your sky now

ARIANE 1 DEB

Track ARIANE 1 DEB now!
10-day predictions


NORAD ID: 40778
Int'l Code: 1979-104AF
Perigee: 616.0 km
Apogee: 13,628.9 km
Inclination: 18.0 °
Period: 260.0 minutes
Semi major axis: 13493 km
RCS: Unknown
Launch date: December 24, 1979
Source: European Space Agency (ESA)
Launch site: FRENCH GUIANA (FRGUI)

Note: This is SATELLITE DEBRIS
aabbcc
Your satellite tracking list
Your tracking list is empty




NASA's NSSDC Master Catalog

Two Line Element Set (TLE):
1 40778U 79104AF  22139.14083951  .00001070  00000-0  36403-2 0  9991
2 40778  17.9521  70.6246 4821913  67.6667 349.3587  5.53881584171560
Source of the keplerian elements: AFSPC